Terug naar catalogus

ATLAS 5 CENTAUR DEB

LostHEO
NORAD 52045·DEBRIS·🇺🇸 United States

Gelanceerd Oct 17, 2018 vanaf Cape Canaveral Space Force Station

Loading…

Volgende Passages (komende 24 uur)

TLE

VerouderdSource: Space-Track

Epoch: May 14, 2026, 06:32 UTC

1 52045U 18079GP  26134.27264550 -.00000045  00000-0  00000-0 0  9998
2 52045  13.2531  62.0052 4565465 253.0346  53.4037  1.72870191 30108

Volg ATLAS 5 CENTAUR DEB in realtime met AllMySat

Download on the App Store